Theta_e
327 330 331 332 332 333 334 331 330 330 332 333 333 333 331 329 329 329 329 329 327 328 328 329 330 331 332 330 327 328 328 328 327 327 328 328 328 329 329 329 329 330 330 330 330 331 331 331 330 329 329 330 328 327 326 326 324 323 324 326 326 325 324 324 324 324 325 324 323 324 324 325 325 326 327 326 325 323 321 320 321 322 322 323 323 322
328 332 331 329 328 329 331 331 328 329 330 332 332 329 329 335 336 330 329 329 327 329 328 327 329 330 330 329 327 326 327 326 326 326 326 327 328 328 329 329 329 330 329 330 330 330 331 331 331 330 330 330 329 326 325 326 325 322 323 326 328 327 324 322 322 323 324 323 322 323 324 325 326 327 327 326 325 324 322 321 321 321 322 323 323 322
329 330 328 327 327 327 328 329 328 327 329 329 330 329 329 334 334 328 330 330 328 332 331 327 328 329 329 329 326 324 326 326 325 326 327 328 328 328 330 330 330 330 330 331 331 331 331 331 331 330 330 331 330 328 326 327 327 324 324 325 326 327 324 322 321 322 323 322 323 324 326 326 327 326 325 325 325 325 324 321 320 321 322 322 323 322
327 327 326 326 326 327 327 329 329 327 328 328 328 330 329 329 330 329 329 328 330 332 329 328 329 328 328 329 328 324 324 326 326 327 328 328 329 329 330 330 330 330 329 330 330 330 331 332 331 331 331 331 331 330 329 328 327 325 324 324 324 325 323 321 321 321 321 322 325 326 326 326 326 325 325 324 324 324 325 323 321 320 322 322 322 322
325 325 324 325 326 327 327 328 329 329 329 327 326 328 329 329 331 332 330 330 337 332 326 331 330 328 331 329 329 328 325 325 325 326 327 328 329 329 330 330 330 329 329 329 329 330 331 331 331 332 332 331 331 331 331 329 327 325 324 324 324 323 322 322 322 322 322 322 325 326 325 325 325 325 324 323 323 324 325 324 323 321 322 323 322 323
323 322 322 325 326 327 327 328 328 329 330 325 323 327 327 328 330 330 332 335 337 329 325 332 329 327 335 333 330 330 327 326 326 325 326 327 329 330 330 330 329 329 329 329 329 330 331 331 331 332 332 332 332 331 331 330 327 325 324 324 324 323 323 323 323 322 322 323 324 325 325 325 326 325 324 324 324 324 325 325 325 323 322 322 322 323
325 321 322 325 326 326 326 328 327 327 328 322 321 326 325 328 329 328 332 335 333 328 327 336 336 330 330 329 330 330 329 329 328 326 326 327 329 329 329 330 330 330 330 330 330 331 331 331 331 332 333 333 332 331 331 331 328 325 324 324 323 323 324 324 324 323 324 324 324 325 326 327 327 326 325 326 325 325 325 324 325 325 324 323 323 324
326 321 322 323 326 327 325 328 329 327 325 322 322 326 326 328 328 328 332 334 333 333 331 339 345 334 326 330 333 331 330 331 330 329 328 327 329 330 329 330 330 330 331 331 331 331 331 331 331 332 333 333 331 330 330 331 328 325 324 323 323 324 324 324 324 324 325 325 325 326 327 327 327 326 326 327 327 326 326 325 325 325 325 324 324 324
323 321 321 323 325 326 326 329 328 325 323 323 324 326 327 328 330 331 332 335 336 333 328 333 340 332 330 344 345 332 330 331 331 331 328 326 327 330 330 330 330 331 331 331 331 331 331 330 331 331 332 333 332 331 329 329 328 325 324 324 323 324 324 323 324 325 325 325 326 327 326 327 327 327 327 327 327 327 326 326 326 325 325 325 325 324
320 321 320 323 326 324 326 326 324 325 325 324 325 327 328 328 331 334 335 339 341 334 326 328 337 334 333 346 342 329 329 330 330 330 327 325 327 330 330 330 331 331 331 331 331 331 331 331 331 331 332 333 333 332 330 329 327 325 325 324 324 325 325 325 325 325 325 326 327 327 328 329 329 329 329 328 327 326 326 326 325 324 324 325 326 325
320 320 321 322 325 323 323 324 322 323 323 326 328 329 329 329 336 344 348 345 336 333 334 332 338 339 332 335 336 335 336 331 329 330 326 325 326 329 330 330 331 331 331 332 331 331 332 332 332 331 333 333 333 333 331 329 327 325 324 324 325 327 327 327 327 326 327 327 328 328 330 331 330 330 330 329 328 327 326 325 325 324 323 324 325 326
322 318 322 321 320 322 322 322 321 321 323 326 330 329 328 330 338 343 345 344 333 332 339 335 335 336 332 332 336 342 341 330 328 329 326 326 326 329 331 331 332 331 331 332 331 333 333 332 331 330 332 333 334 333 331 331 330 329 328 326 326 327 329 329 328 328 327 327 329 329 330 330 330 329 329 328 327 327 327 326 325 325 324 324 324 325
327 322 322 321 321 322 321 323 323 324 326 326 329 332 329 329 332 332 332 336 335 333 333 332 330 330 336 341 336 337 334 326 326 325 325 325 325 329 331 331 332 331 331 332 332 333 333 332 331 330 331 333 333 332 331 332 332 332 331 329 328 328 330 330 330 330 328 327 329 329 328 329 328 327 326 326 325 326 326 326 325 325 325 325 324 324
330 330 324 321 323 322 321 325 324 323 326 325 327 333 332 330 329 326 326 327 329 330 328 329 328 325 332 336 331 331 328 324 324 323 324 327 326 329 331 331 331 331 331 332 332 333 333 331 330 329 332 332 332 331 331 333 333 332 333 331 329 329 329 330 330 330 328 326 327 327 326 327 326 325 325 326 326 326 327 326 325 325 325 325 325 325
328 328 328 323 323 323 323 327 327 328 329 325 329 332 330 335 335 328 332 334 328 329 328 324 326 327 330 329 324 326 324 322 324 324 325 327 328 329 329 331 331 331 332 333 333 333 331 330 329 329 331 331 332 332 332 333 333 333 332 331 331 331 330 329 328 327 326 324 325 326 326 326 326 326 327 328 328 328 328 328 327 327 327 326 326 326
323 326 334 326 320 323 322 324 326 331 331 326 327 327 322 332 341 331 333 341 335 329 328 326 328 332 333 329 323 322 322 323 323 322 323 324 326 329 329 331 332 332 333 333 333 333 331 331 331 331 330 330 332 333 332 333 332 332 332 330 332 333 331 330 329 326 324 324 325 325 326 327 326 327 328 329 330 329 329 328 328 329 329 329 328 327
323 327 336 325 320 325 321 321 322 324 331 331 324 325 324 325 334 328 322 332 337 331 327 328 328 327 327 326 324 323 324 324 323 322 322 323 326 329 330 332 332 333 334 333 333 333 333 333 333 332 330 330 332 333 332 332 330 331 331 329 330 331 329 330 330 327 326 327 327 327 328 328 327 328 329 330 330 329 329 328 328 329 329 329 329 328
330 330 334 327 321 322 320 321 322 320 329 334 326 328 330 322 329 337 326 324 331 328 325 326 325 322 324 327 327 326 325 325 324 324 322 325 329 330 331 332 333 334 333 333 334 334 333 333 334 332 329 331 334 333 332 331 330 331 330 329 329 329 329 329 328 327 327 327 327 327 328 326 326 328 329 329 329 328 329 328 327 328 327 327 327 326
333 327 331 332 323 322 327 326 322 322 327 330 327 329 330 322 324 334 329 323 324 323 322 325 324 322 324 326 326 326 327 327 326 325 324 326 329 330 332 333 333 334 333 334 335 334 333 332 332 329 327 330 333 331 330 328 328 329 328 328 328 327 329 329 327 326 326 325 325 325 326 325 325 326 327 327 328 328 328 328 327 327 326 326 326 325
335 327 327 333 327 322 333 334 325 329 331 328 330 334 337 334 328 326 327 327 327 325 326 325 323 326 332 331 327 326 328 328 326 325 325 325 327 330 332 334 334 334 334 335 334 331 329 326 325 325 324 326 327 326 326 325 325 327 327 328 329 327 329 330 329 329 328 328 327 326 326 326 326 326 326 327 327 328 327 327 327 326 325 325 325 325
336 331 326 333 335 324 329 335 332 337 336 330 332 332 333 338 333 327 325 327 327 328 334 332 324 331 341 333 326 326 327 327 325 325 325 323 326 330 332 333 334 334 334 334 332 329 325 322 323 325 325 325 326 325 325 325 327 329 329 329 330 329 330 330 330 330 330 330 329 328 327 327 326 327 327 326 326 327 327 326 326 325 324 324 324 325
334 335 329 329 331 325 329 336 335 339 343 342 336 326 329 337 334 329 326 330 334 328 332 335 327 333 341 330 326 328 327 325 324 323 324 324 326 331 332 333 332 333 334 332 330 328 325 323 324 327 328 326 327 327 325 327 328 329 329 330 330 330 330 329 330 329 329 330 329 328 328 327 327 326 325 325 325 326 326 326 326 326 327 327 327 327
339 348 335 326 327 326 327 327 325 329 337 344 338 331 339 341 339 342 332 327 334 325 325 336 330 330 345 341 331 328 325 324 323 323 324 325 327 330 331 331 331 331 332 330 330 328 327 326 324 326 329 328 327 327 326 328 329 328 328 329 329 331 329 328 328 327 327 328 328 329 329 328 326 325 324 325 326 326 327 327 328 328 328 329 329 329
341 343 327 330 346 346 339 337 335 336 340 338 332 337 344 336 341 358 345 332 335 326 326 338 329 327 350 350 329 323 323 324 324 325 326 326 326 329 329 329 330 331 330 330 330 328 327 328 326 325 329 328 327 327 326 327 328 326 327 327 328 329 328 326 326 326 327 328 329 329 328 326 325 325 326 326 327 327 328 328 329 329 329 329 329 329
332 335 334 341 348 344 341 345 342 341 341 336 332 336 342 341 345 348 342 342 339 324 327 342 333 335 357 346 325 324 327 326 325 326 327 327 326 327 328 328 330 330 330 330 329 328 328 328 325 324 327 328 327 327 326 326 326 325 325 324 325 326 326 324 323 324 326 326 327 326 324 324 325 326 327 327 327 327 328 328 329 329 330 330 330 330
331 341 355 349 337 332 333 337 338 335 333 332 335 337 337 342 342 332 334 344 339 326 333 343 336 337 348 337 326 330 331 328 327 327 327 328 326 326 327 328 329 330 330 329 328 328 327 326 323 323 325 326 326 326 326 325 324 324 323 322 323 323 322 321 320 321 321 322 323 324 324 325 326 326 327 327 327 328 328 329 330 330 331 331 331 331
342 343 358 358 348 344 341 346 348 339 329 327 330 333 334 339 343 341 339 339 338 336 336 339 336 332 332 330 329 330 330 330 329 326 326 327 326 326 327 327 328 329 329 329 329 328 326 324 322 322 324 326 325 325 326 324 323 324 323 323 323 322 321 320 321 321 321 321 323 325 326 326 326 327 327 328 329 329 329 330 330 331 331 331 331 332
347 332 337 348 348 344 343 351 350 335 331 335 332 330 333 337 343 349 342 335 341 341 332 334 341 333 328 335 333 329 330 330 328 326 326 327 327 326 327 327 328 329 329 328 328 327 325 323 323 323 324 325 325 325 325 324 324 324 324 325 325 323 323 323 324 324 323 323 325 326 326 326 327 328 329 329 329 329 330 330 330 331 331 330 330 330
351 331 327 332 335 341 342 343 343 336 337 344 341 338 339 338 339 342 339 339 348 345 333 336 341 332 332 340 336 330 329 326 326 327 327 327 328 327 327 328 328 328 328 328 327 325 324 324 325 325 325 325 325 325 325 325 325 325 326 326 326 325 325 325 326 326 326 326 327 327 327 328 328 329 329 329 330 330 329 329 329 328 327 325 324 322
340 335 333 330 331 344 343 332 335 337 334 336 340 346 349 348 349 347 342 345 349 348 350 349 337 333 342 344 336 330 326 324 327 328 328 328 328 328 328 329 329 328 328 328 327 325 323 324 325 325 325 326 325 325 325 325 326 326 326 326 327 327 326 326 327 327 327 327 328 328 328 328 328 329 330 330 330 329 328 326 324 322 320 318 316 314
330 332 338 337 331 342 351 338 332 334 333 333 336 343 348 346 344 342 339 341 338 337 351 349 332 336 347 339 331 328 325 327 329 327 328 329 328 329 329 328 328 328 328 328 328 326 323 323 325 325 326 326 325 326 326 325 326 326 327 327 327 327 327 326 327 328 328 328 328 328 328 328 329 329 329 329 327 326 324 321 319 317 316 314 313 313
339 333 338 339 329 336 349 339 330 333 333 330 329 334 341 341 339 338 339 343 339 335 340 335 329 345 350 331 325 327 324 325 326 327 328 329 328 329 329 328 329 328 329 328 328 328 325 323 325 325 325 326 326 326 326 326 327 326 327 326 327 327 327 327 328 328 329 329 329 329 328 328 328 328 327 326 323 321 319 318 317 316 315 314 314 316
350 340 337 335 328 335 345 336 333 334 327 329 337 341 343 344 344 340 337 342 346 343 340 332 334 354 351 330 327 330 325 323 325 326 328 328 329 329 328 329 329 328 329 329 328 328 327 324 325 325 325 326 326 327 327 327 327 327 326 327 327 328 328 327 328 329 329 329 328 327 327 326 326 325 324 323 321 319 318 317 316 314 314 314 316 319
346 340 337 335 329 337 348 344 335 328 324 338 358 357 344 341 343 340 339 342 344 342 343 338 339 350 345 332 332 332 329 328 326 325 327 328 328 329 329 329 329 328 329 328 328 329 328 327 326 325 325 325 325 326 327 327 328 327 326 327 327 327 328 328 328 328 328 327 326 326 326 325 324 324 323 321 320 318 317 315 313 312 315 316 317 319
343 338 335 336 332 336 347 343 330 326 334 349 356 348 341 342 347 346 346 348 345 340 341 337 337 341 335 328 330 329 327 328 326 326 328 327 327 328 328 328 328 328 329 328 328 329 328 328 327 325 326 326 326 326 326 327 328 327 326 327 327 327 327 327 327 327 326 326 326 325 325 324 324 323 322 319 318 316 314 312 311 313 316 317 317 319
344 341 335 334 332 333 334 330 327 333 342 342 335 332 333 336 340 336 332 336 343 343 340 338 340 338 328 324 328 328 327 327 326 327 327 327 327 327 326 327 328 327 328 328 328 329 329 329 328 327 326 325 326 327 327 327 327 326 326 327 327 326 326 327 327 327 326 326 325 325 324 323 322 321 319 317 315 314 312 311 311 313 315 316 317 317
337 341 335 328 330 335 333 331 334 334 331 332 332 330 329 329 333 336 333 336 346 344 335 336 342 339 328 325 327 328 327 327 328 328 328 327 328 327 326 327 327 327 328 328 328 329 329 329 329 328 326 325 326 328 328 327 326 326 326 327 327 326 327 326 326 326 326 325 325 323 322 321 320 318 316 315 314 312 311 311 311 312 313 314 315 314
331 335 335 328 330 338 334 329 330 326 327 342 351 343 332 325 328 340 340 339 344 337 327 331 342 340 332 328 327 327 328 331 333 332 328 327 327 327 328 327 327 328 328 327 327 328 328 329 329 328 326 326 327 327 327 327 326 326 326 327 327 326 326 326 326 325 325 324 322 322 320 319 317 315 314 313 312 312 312 312 313 312 312 312 311 309
329 331 334 329 328 332 328 325 328 327 332 350 359 348 333 322 325 335 335 337 342 332 323 329 336 334 331 328 327 328 330 335 338 333 327 327 328 327 328 327 327 328 327 327 327 327 328 329 329 328 327 327 328 328 327 327 327 326 327 326 326 326 326 326 325 324 323 321 321 320 319 317 315 313 313 313 312 312 313 314 313 312 312 311 310 307
329 329 330 328 327 332 331 328 332 333 331 337 344 340 330 322 325 331 331 335 339 329 324 328 329 328 329 327 327 329 331 335 337 331 327 328 328 327 327 328 328 328 328 329 328 328 328 329 328 328 328 328 328 328 327 327 327 326 326 326 325 325 324 324 323 321 321 320 320 318 317 315 313 312 311 312 313 314 314 313 312 312 312 311 311 309
334 330 328 329 331 332 329 327 331 335 334 335 337 333 325 323 328 334 337 339 335 327 326 327 326 328 329 327 328 331 331 331 330 328 328 328 327 327 328 327 328 329 329 329 329 329 329 329 328 329 329 328 328 327 327 327 326 326 326 325 324 323 322 321 321 320 319 319 318 316 314 312 312 312 312 312 312 313 313 312 311 311 311 311 311 310
336 330 327 327 329 332 332 328 328 331 332 331 331 329 324 325 333 338 340 336 328 327 328 328 328 330 329 328 330 331 330 330 329 328 329 328 328 328 328 328 329 330 330 330 330 330 329 329 329 329 328 328 327 327 326 327 326 325 324 322 321 321 320 320 319 318 318 316 314 313 313 312 312 312 312 312 311 312 312 311 310 309 309 309 310 309
333 329 329 331 330 333 334 328 325 330 332 329 331 332 330 334 339 339 335 332 330 330 329 329 330 330 329 330 331 330 331 331 330 329 328 328 329 330 330 330 331 331 332 332 331 331 330 329 329 329 328 328 327 327 327 327 326 323 321 320 319 319 319 318 317 317 316 313 311 312 312 312 310 310 310 310 310 310 310 309 309 308 308 308 309 309
332 330 333 336 334 335 337 332 328 332 334 330 332 336 333 333 335 334 332 333 333 331 331 331 332 332 332 333 333 333 333 332 330 331 330 330 331 331 332 333 332 333 334 333 332 332 331 330 329 329 328 327 326 326 325 324 323 321 320 320 320 318 318 317 316 315 314 312 312 312 312 310 309 309 310 310 309 309 309 308 308 307 307 308 309 309
330 331 334 334 333 334 337 337 332 330 329 328 331 332 330 330 332 332 332 333 332 332 333 333 332 332 333 333 333 333 333 332 332 332 331 331 332 333 334 335 335 335 335 334 333 332 331 330 330 328 327 327 326 324 322 320 321 321 320 320 319 318 317 316 314 313 313 312 312 312 311 310 310 309 310 309 309 309 308 307 307 306 306 308 309 309
328 330 333 335 334 330 330 332 330 327 327 328 329 329 328 329 330 330 331 331 331 332 333 332 332 332 332 331 331 330 331 331 332 332 333 333 334 334 335 336 336 335 334 333 332 330 329 329 328 327 327 326 324 321 320 319 320 321 320 319 318 317 316 314 312 313 313 313 312 311 311 311 310 309 309 309 308 308 307 307 307 306 306 308 309 309
330 329 335 339 335 331 333 334 331 328 327 327 328 329 329 329 329 329 330 331 330 331 332 332 332 332 332 331 331 329 330 332 333 333 334 334 334 335 336 335 334 334 333 332 331 330 329 328 327 327 327 324 321 319 319 320 320 319 318 317 317 317 315 313 313 313 313 313 312 310 310 310 309 309 309 308 308 308 307 307 307 306 307 308 309 308
330 328 335 339 336 334 335 333 329 327 327 327 327 328 327 328 328 328 329 330 329 330 330 329 329 330 331 332 332 332 333 334 333 334 334 334 335 335 334 334 333 332 331 331 330 329 329 328 327 326 325 322 320 320 320 319 318 318 317 317 317 316 314 313 314 314 312 311 311 309 309 310 309 309 308 308 308 308 307 307 307 306 307 307 307 306
327 328 331 333 337 337 333 329 328 329 329 328 327 327 327 326 326 327 329 330 329 329 329 328 328 329 330 330 332 333 333 334 334 334 334 334 334 334 333 333 333 332 331 330 330 329 328 327 326 324 322 321 320 320 319 318 317 317 317 316 316 315 313 313 314 313 311 310 310 310 309 309 309 309 308 308 307 307 306 305 306 306 306 306 305 305
325 331 331 331 335 338 333 329 329 332 333 331 328 327 327 326 325 325 326 327 327 327 328 328 328 329 329 330 331 332 332 334 334 333 334 334 333 333 333 332 331 331 331 330 329 328 327 325 324 321 320 320 320 320 318 317 317 317 316 315 315 314 313 313 313 312 311 311 311 310 309 309 309 309 308 308 308 307 305 304 305 306 306 305 305 305
321 328 331 332 333 333 330 327 327 329 330 327 325 326 327 327 326 325 324 324 324 325 325 326 327 327 326 326 326 327 330 332 333 333 333 333 332 332 332 331 331 330 329 328 327 327 325 323 321 320 320 321 320 319 318 317 316 316 315 314 314 313 313 313 312 311 311 311 310 310 309 309 309 308 308 308 308 306 305 305 306 306 305 304 304 304
Wind_Speed
11 3 1 5 6 8 8 10 10 7 4 3 3 4 4 3 3 5 4 5 10 8 5 8 8 8 9 8 11 20 23 18 18 18 19 17 16 18 16 13 19 23 21 18 17 19 17 12 7 5 7 8 8 7 8 7 5 4 4 3 2 1 3 3 2 2 2 2 3 3 3 4 6 7 8 8 10 9 8 7 6 5 8 10 11 13
10 5 7 12 12 10 9 10 10 7 5 4 3 3 4 2 4 5 4 5 7 6 4 7 7 8 10 9 10 17 17 14 18 18 17 18 18 21 19 17 19 20 19 18 17 17 14 9 7 6 7 7 8 8 8 7 5 4 4 3 2 1 2 2 2 2 1 1 2 3 3 5 6 7 7 8 9 9 8 8 5 3 6 9 10 12
4 5 12 16 13 9 6 6 8 8 6 5 3 3 4 4 4 3 1 5 5 4 5 7 7 8 10 7 8 15 16 17 25 25 22 23 23 25 24 22 22 20 19 18 16 15 13 9 8 7 6 6 7 7 7 6 5 5 4 3 2 2 2 2 2 2 2 2 3 3 3 4 5 6 6 7 8 8 8 8 6 3 4 7 9 10
3 9 16 14 11 9 7 7 7 6 5 5 4 4 3 5 4 1 2 4 3 3 7 7 4 4 6 3 4 14 19 20 25 27 27 28 28 30 28 25 23 20 19 18 16 14 13 11 9 8 7 5 6 7 7 7 7 5 4 3 3 3 2 3 3 2 2 2 3 3 3 4 4 5 6 6 7 7 8 8 6 4 3 6 8 9
7 13 13 11 12 13 9 7 7 4 3 4 6 5 5 5 4 3 3 2 2 3 7 6 3 3 4 3 3 8 13 15 19 21 22 25 29 31 29 25 23 20 18 16 14 13 13 12 10 9 8 6 6 7 7 7 7 6 5 4 4 4 3 3 3 2 1 2 2 2 2 3 3 4 5 5 6 6 7 7 6 4 2 5 8 9
10 10 7 13 14 14 10 6 7 7 3 2 6 8 8 7 4 2 4 4 5 2 4 6 4 3 5 3 5 4 5 8 13 16 17 22 27 29 29 26 22 19 15 13 12 13 12 11 12 12 9 6 6 6 7 6 7 7 6 6 5 5 4 4 4 3 1 1 1 1 1 2 3 4 5 5 5 6 6 7 6 4 2 3 6 8
7 4 7 13 13 11 10 5 5 9 4 1 7 10 9 9 7 6 5 5 3 2 3 4 5 2 4 4 6 3 6 6 9 11 14 21 25 27 28 25 21 19 16 14 13 12 11 12 14 14 10 7 5 7 7 7 7 8 7 6 6 5 5 4 4 3 2 1 1 1 2 3 4 4 5 5 5 6 7 7 6 5 3 2 4 7
4 3 6 9 10 7 6 4 5 8 6 3 9 13 11 9 7 6 6 4 3 2 2 3 5 3 2 5 5 3 8 7 6 7 10 18 22 25 27 25 22 20 17 17 16 14 12 12 12 12 11 7 5 7 8 7 7 8 8 7 6 6 5 5 4 2 2 1 0 1 2 4 4 4 5 6 7 7 7 7 7 6 4 3 3 5
2 0 4 8 7 4 4 6 7 9 5 3 9 12 10 8 5 4 6 4 1 4 2 5 3 5 3 5 4 3 8 7 7 7 9 14 20 24 27 25 22 20 18 18 18 16 14 12 10 9 10 10 7 6 7 6 7 8 8 7 7 6 5 5 4 3 2 1 1 1 3 3 3 4 6 6 7 7 7 8 9 8 6 4 3 4
3 5 6 9 6 6 7 8 7 9 4 6 11 10 6 6 6 5 5 3 3 4 3 6 2 5 3 5 2 2 6 7 7 6 9 15 22 27 29 27 23 21 19 18 18 16 13 10 9 9 11 12 9 7 6 6 7 8 8 8 7 7 6 5 4 3 3 2 2 1 2 3 3 4 5 5 6 6 7 7 8 8 7 5 4 5
5 3 4 6 5 6 6 5 3 7 8 10 9 6 5 6 5 4 3 4 4 2 5 5 2 5 0 5 3 3 5 8 7 6 7 12 20 27 29 27 25 23 21 20 19 15 12 11 10 10 13 13 11 9 8 6 6 7 7 8 7 6 6 4 4 3 3 2 1 0 1 2 3 4 4 4 5 5 6 6 7 7 7 6 5 4
5 3 2 2 5 5 2 3 2 6 6 6 6 5 5 4 4 4 4 4 4 2 6 5 3 6 3 4 5 5 5 7 9 8 8 11 18 26 28 28 27 25 23 22 20 16 15 13 11 10 13 14 13 11 8 7 6 6 5 5 6 6 5 4 4 3 2 2 1 0 1 2 3 4 4 4 4 4 5 6 6 6 6 6 6 5
3 3 4 2 2 4 5 2 4 5 5 5 6 6 5 2 3 3 2 2 2 4 6 5 5 3 2 5 6 5 4 7 10 13 16 18 22 26 28 28 27 26 25 23 20 18 17 14 11 11 14 15 13 10 9 8 6 5 4 3 3 5 5 4 3 3 3 3 2 2 2 2 3 3 3 3 4 4 5 6 6 5 5 6 6 6
3 6 5 3 3 1 6 3 2 1 2 6 6 5 4 3 2 0 2 1 1 5 5 3 4 0 2 4 4 7 8 12 16 20 25 26 27 29 29 28 26 26 26 24 22 19 16 13 11 12 14 14 12 10 10 9 7 6 4 2 2 4 4 2 3 4 3 3 2 1 1 1 1 2 3 5 6 6 7 8 7 6 6 7 7 7
2 4 4 1 2 2 4 4 6 4 3 5 5 5 5 4 4 3 3 2 3 3 1 2 2 2 2 3 5 10 13 17 21 22 24 26 28 30 28 26 27 27 26 24 22 18 14 13 12 12 12 13 12 11 10 9 9 8 4 2 2 3 3 1 1 3 3 2 3 2 2 2 2 3 4 6 7 8 9 9 8 8 9 9 9 8
4 3 7 5 3 3 3 4 6 6 2 2 3 5 1 4 6 3 4 5 4 2 1 1 1 2 2 3 3 9 12 14 18 18 19 22 25 27 26 26 27 28 27 24 21 16 14 13 12 12 11 12 14 13 10 8 8 7 5 3 3 2 2 1 1 1 3 3 3 3 3 3 3 4 4 5 7 8 10 10 9 9 10 11 11 10
3 4 7 2 2 2 6 4 3 5 2 1 1 2 3 3 7 5 1 1 4 4 2 2 1 1 1 2 3 3 8 9 11 13 16 22 27 27 27 28 28 28 27 24 19 16 14 14 13 11 11 12 14 14 11 9 8 7 5 4 4 4 2 2 1 2 3 3 3 4 4 4 4 5 5 6 6 7 10 11 11 11 10 11 11 11
4 3 7 1 1 5 5 4 5 3 4 4 1 4 1 2 4 5 3 3 4 3 2 1 4 4 3 2 4 2 7 8 7 9 14 20 26 26 27 29 29 29 27 22 18 16 15 15 13 11 10 12 13 12 10 10 10 9 7 5 5 5 4 3 2 3 3 3 3 4 4 4 4 4 4 6 6 7 9 10 11 11 10 10 10 11
4 1 7 2 3 3 2 7 4 5 3 4 3 3 3 2 1 1 3 2 2 2 2 1 2 4 4 4 6 7 9 9 6 8 11 15 21 24 26 28 29 29 26 22 19 17 16 15 13 11 11 12 12 11 10 10 10 9 8 7 5 5 5 5 4 5 5 5 5 5 5 5 4 4 4 5 6 7 8 9 10 10 10 10 10 10
3 3 4 5 2 1 5 5 2 4 5 4 3 3 2 3 3 1 1 3 4 3 3 1 1 2 5 5 10 11 11 10 9 8 9 14 22 26 27 28 30 29 27 24 22 18 15 14 13 12 13 13 12 11 10 10 10 9 9 9 8 6 6 6 5 6 6 6 6 6 6 6 5 5 5 5 6 7 8 9 9 10 10 10 9 10
3 4 1 6 5 2 1 1 6 4 0 3 4 4 3 1 1 1 1 0 4 4 4 3 0 5 6 4 9 13 12 11 12 10 9 14 23 27 30 31 31 30 28 25 22 19 16 15 14 13 14 13 12 12 11 10 10 10 9 9 8 7 6 5 4 4 4 4 5 5 6 6 6 6 6 6 7 7 8 8 9 9 10 10 10 11
1 3 2 3 4 1 3 4 6 8 6 5 4 2 2 1 2 3 2 3 2 4 3 4 2 6 6 2 7 11 10 9 13 14 11 16 24 28 32 32 29 29 28 25 22 19 17 16 14 13 13 13 12 11 11 11 10 9 8 7 7 6 5 4 3 3 2 3 3 4 5 6 6 6 6 6 6 7 7 8 8 9 10 11 12 12
3 4 3 1 1 2 4 4 1 5 6 5 3 3 4 3 4 5 2 3 2 3 1 4 3 4 6 2 4 8 10 12 17 19 17 19 26 30 32 30 28 27 26 23 21 18 17 15 13 13 13 13 12 11 11 11 10 9 8 6 6 5 4 3 2 2 1 1 2 3 4 5 5 5 5 5 6 7 7 8 9 10 12 12 13 14
3 4 3 2 4 4 6 6 4 3 7 6 2 1 3 3 3 5 5 3 2 2 1 4 2 4 6 3 2 9 14 16 18 23 22 20 24 29 31 29 28 27 24 23 20 18 16 15 13 13 14 14 13 12 11 12 11 10 9 7 7 6 4 3 2 3 3 2 1 2 3 3 3 3 4 6 7 8 8 9 10 11 12 13 14 14
1 1 2 3 4 5 6 6 6 6 4 3 0 2 2 4 5 3 1 3 3 1 3 5 2 6 5 2 4 10 14 14 16 23 27 24 24 27 28 28 28 27 25 24 21 19 18 16 14 15 15 15 13 13 12 12 12 11 10 9 8 7 6 5 5 5 5 4 2 1 1 2 2 3 5 7 8 8 9 10 10 11 13 13 14 15
4 2 4 5 3 1 1 3 2 2 1 1 0 2 1 5 6 3 2 4 3 0 3 5 4 5 5 2 6 9 10 11 15 22 26 27 28 28 28 28 28 28 27 25 23 20 18 17 16 16 16 15 14 14 13 13 13 13 11 10 9 8 7 7 6 6 5 4 4 3 2 3 3 4 5 6 7 6 7 9 10 11 12 14 15 16
4 2 3 7 6 6 5 6 6 3 2 1 1 0 1 3 7 6 4 2 3 2 2 2 6 4 3 2 4 8 10 11 12 16 20 23 27 29 28 29 29 28 27 25 23 20 17 18 19 19 18 17 16 15 14 14 15 14 12 11 10 10 9 8 7 6 5 5 5 4 3 3 3 3 3 4 6 7 9 10 12 13 14 15 16 16
5 2 1 6 5 6 7 7 5 2 5 5 4 3 1 2 6 7 4 3 4 5 2 5 4 6 6 7 5 9 11 10 10 16 22 25 28 30 30 29 28 28 27 25 23 20 19 20 21 21 20 18 17 16 14 15 16 14 12 12 12 12 11 9 8 6 6 6 5 3 1 2 4 6 7 9 10 11 11 11 11 11 11 12 12 12
6 0 2 2 1 4 3 3 4 3 3 4 6 7 5 5 5 5 5 6 6 6 4 6 6 6 7 7 7 9 11 12 17 24 29 30 30 30 30 29 28 29 29 26 23 20 20 21 22 21 20 19 18 17 16 17 17 14 12 13 14 13 13 11 10 8 7 6 5 5 6 8 9 10 11 12 12 10 9 7 6 7 8 10 12 13
5 1 3 2 3 6 5 2 2 4 2 2 3 6 7 8 8 7 5 6 6 6 6 6 6 5 6 7 8 9 12 17 22 26 27 28 30 30 30 30 30 30 30 27 23 21 21 21 21 21 22 21 19 19 19 18 18 16 14 13 13 14 14 13 12 11 9 9 10 11 11 12 12 12 11 10 9 7 6 5 6 9 11 14 15 16
4 2 3 4 5 6 7 5 1 4 4 5 7 5 4 6 5 3 3 4 5 3 3 5 4 4 6 5 6 9 13 15 17 21 24 28 32 32 31 31 31 31 30 27 23 22 21 21 20 20 22 22 20 19 19 17 16 17 16 14 13 14 15 16 16 15 14 14 14 13 13 12 11 10 9 8 6 5 5 8 11 14 15 16 16 14
4 0 1 5 4 5 6 5 6 3 1 2 7 6 5 7 5 3 3 5 6 6 4 5 3 4 6 3 5 11 14 15 17 22 26 29 32 32 32 32 33 32 30 28 25 23 21 22 22 21 22 22 19 17 17 17 15 14 15 15 13 13 15 19 21 19 17 16 14 13 12 11 11 10 8 6 4 5 9 12 15 17 17 16 14 12
4 3 0 3 2 5 6 4 5 6 5 4 6 7 8 5 4 3 2 4 7 7 7 5 5 6 5 4 6 7 8 10 17 22 25 28 31 33 33 32 32 32 30 28 28 25 23 24 24 23 22 23 20 16 16 17 15 13 14 13 12 12 14 18 21 21 18 15 14 14 13 11 10 8 5 4 6 10 13 16 18 18 16 13 11 10
3 5 3 2 2 5 7 4 4 5 3 6 7 8 10 8 8 7 4 7 8 4 5 5 5 3 5 7 8 9 10 12 17 21 22 23 28 32 33 31 30 31 31 29 29 28 26 26 26 25 24 23 20 16 16 17 15 13 14 14 12 12 13 17 20 20 19 18 16 14 11 9 6 4 5 8 11 14 15 16 15 14 13 12 10 9
3 4 2 1 3 3 4 5 5 3 6 8 7 3 6 8 10 8 4 6 8 5 4 4 4 5 9 12 14 16 19 20 20 20 18 19 23 27 29 29 30 31 31 30 29 29 29 28 27 27 25 23 20 18 19 19 18 16 16 15 14 14 16 19 21 21 20 18 14 11 8 5 4 6 8 11 13 14 13 12 11 10 11 11 10 9
5 4 2 1 2 2 1 3 1 6 8 6 7 3 4 5 6 6 1 5 7 7 6 7 7 7 11 16 20 21 23 22 20 19 19 20 21 22 23 25 26 24 23 25 27 29 30 29 28 27 27 26 22 21 22 22 20 19 19 18 18 18 19 21 22 20 17 14 11 7 4 5 7 9 10 11 12 11 11 10 9 9 9 9 9 10
7 4 2 3 2 2 3 2 2 4 5 5 4 2 3 2 4 8 3 6 7 6 7 8 7 8 9 13 16 17 17 14 11 14 20 21 20 20 20 20 19 15 15 18 21 23 27 29 29 27 27 26 23 22 23 23 22 22 22 21 21 21 21 21 20 17 13 10 6 3 5 7 9 10 10 10 9 9 8 7 8 9 9 10 10 11
7 4 5 5 3 3 4 1 2 2 3 5 7 8 5 4 7 9 5 3 6 6 8 9 7 7 9 9 7 10 12 8 2 10 21 22 20 20 20 18 15 14 16 18 18 19 22 27 29 28 28 26 24 23 25 25 24 24 24 23 23 22 21 19 16 12 9 6 3 5 7 9 10 10 9 8 7 6 6 8 10 11 10 10 11 11
4 2 5 6 2 3 5 3 3 3 5 7 8 9 6 9 13 10 6 3 7 7 6 9 8 7 9 10 11 13 11 5 3 12 23 25 21 21 21 18 17 19 20 19 19 19 20 23 26 28 28 26 25 24 25 25 25 25 25 24 23 21 19 15 12 8 5 3 4 5 7 9 9 7 6 5 4 5 6 7 9 9 9 10 10 11
1 4 4 5 4 4 5 3 3 3 4 5 6 9 6 11 15 10 2 6 7 6 2 12 14 10 10 15 16 12 8 6 9 16 24 25 22 20 20 20 21 23 22 21 21 20 22 24 27 28 27 26 25 25 25 26 25 25 25 22 19 17 14 10 7 4 2 3 4 5 7 8 5 4 3 3 4 5 4 5 7 7 9 10 11 11
1 3 2 4 5 5 6 4 3 4 4 5 8 8 4 6 8 5 5 7 4 1 5 13 16 15 16 18 15 9 8 8 9 13 18 22 22 21 22 23 24 24 23 23 24 23 24 26 26 26 26 26 26 27 26 26 25 23 20 17 14 11 9 6 5 3 2 5 6 6 5 2 2 3 3 3 4 5 4 5 8 8 8 10 11 12
2 2 1 2 4 4 4 3 2 4 3 7 10 7 1 4 3 5 4 3 2 2 6 12 15 15 15 16 14 12 11 9 8 8 10 17 22 24 24 25 25 25 24 24 24 24 24 25 25 25 25 25 25 25 24 23 21 18 15 12 9 7 6 5 4 2 3 5 4 2 1 3 3 3 3 3 3 5 5 6 8 8 8 9 11 13
1 0 2 2 3 2 2 2 1 4 4 11 10 5 4 2 5 6 2 7 6 4 7 11 12 11 12 13 14 14 14 12 10 8 8 13 20 23 23 24 25 25 25 25 25 24 24 24 25 25 25 24 23 21 19 18 16 14 10 7 5 4 4 5 4 4 4 2 1 4 5 7 7 7 6 4 4 7 7 7 8 8 7 9 10 11
0 1 1 2 1 2 2 2 3 6 6 13 9 3 3 3 4 5 6 9 10 10 10 11 11 10 12 14 15 14 13 12 11 10 10 14 18 21 22 23 24 25 26 25 25 24 23 24 25 25 23 22 20 17 15 13 12 10 6 3 3 5 5 5 5 4 3 3 4 6 7 9 9 7 6 5 5 7 7 6 6 7 7 8 8 9
2 2 2 2 1 2 4 4 3 2 6 11 9 4 5 8 11 11 10 10 11 10 9 10 9 8 9 10 12 12 11 10 10 11 12 15 19 21 23 24 25 25 25 25 25 24 23 23 24 24 23 20 18 15 14 12 10 6 2 3 5 7 6 5 6 6 6 6 7 7 7 7 6 5 5 6 6 5 5 5 5 7 7 7 7 9
3 2 0 1 0 1 1 1 3 5 7 10 9 5 5 8 10 10 10 11 11 9 8 8 7 5 4 4 5 6 8 10 11 12 14 17 21 23 25 26 26 26 26 26 26 24 23 22 22 23 22 19 17 16 14 11 6 4 3 5 7 6 6 7 8 8 8 8 7 6 5 6 7 6 6 6 6 5 5 5 7 8 8 8 7 9
4 6 3 1 1 1 0 3 5 6 7 8 9 6 4 4 5 6 7 6 5 5 7 8 7 7 5 2 1 3 8 12 13 15 18 20 23 25 26 27 27 26 26 26 25 23 22 21 21 21 21 19 18 16 11 6 5 5 5 7 7 6 8 9 8 8 10 9 7 6 7 8 7 5 4 4 4 4 3 5 9 10 8 7 7 9
5 8 3 1 0 1 4 7 8 6 5 3 5 7 7 6 3 1 1 2 4 4 2 1 3 4 5 4 3 1 9 14 15 16 20 23 24 27 27 27 27 27 25 24 23 22 21 20 20 20 19 19 17 13 8 6 6 7 7 7 7 8 10 10 9 10 11 11 9 8 8 7 5 3 3 2 2 2 4 8 10 9 7 7 8 8
6 7 3 0 2 2 4 7 7 6 4 3 3 4 7 9 8 5 5 6 5 3 2 2 3 4 5 4 1 0 6 13 16 16 19 23 25 26 27 26 25 25 24 22 20 19 18 19 20 20 20 18 14 10 7 8 10 9 8 8 9 10 11 12 12 13 12 11 8 7 6 5 4 3 1 2 2 4 8 10 9 7 6 8 9 9
4 4 1 2 2 3 4 4 2 1 3 4 1 2 3 4 7 8 7 4 2 3 5 6 8 7 6 5 3 2 2 8 14 17 19 22 24 24 24 24 24 23 22 20 19 19 19 19 21 22 21 17 13 10 9 11 11 10 9 10 11 12 13 13 13 13 11 9 6 5 4 3 2 1 2 3 4 7 10 8 6 5 5 7 8 10
4 3 2 2 3 5 8 8 5 2 3 5 7 6 4 3 3 3 5 6 6 5 5 8 10 10 10 9 6 5 2 5 12 19 20 20 21 22 22 23 23 22 22 21 20 20 21 22 23 24 22 16 12 11 12 13 12 12 13 13 13 13 14 13 12 11 10 8 5 4 4 3 2 1 3 4 7 10 8 4 2 2 5 6 8 9
Wind_Direction
169 126 201 241 233 213 203 194 204 210 181 140 119 129 132 147 230 218 208 175 135 124 172 178 177 200 211 205 189 193 198 198 199 205 208 200 187 181 173 170 181 186 186 184 184 186 186 182 176 186 191 191 195 192 189 186 180 171 168 174 166 145 159 156 149 116 53 39 44 38 43 40 36 36 32 36 41 44 55 70 75 38 23 27 25 18
159 165 221 232 233 222 206 195 195 200 187 141 129 128 108 127 240 224 194 174 139 125 192 191 174 202 217 207 187 187 192 199 197 191 189 188 180 174 163 152 162 169 173 175 175 179 180 179 181 185 187 191 197 193 187 184 179 170 164 171 199 225 182 144 130 112 74 58 57 43 40 37 33 35 32 31 38 47 56 66 79 44 16 18 21 18
156 215 227 225 232 232 214 204 192 190 187 164 168 134 127 185 228 278 244 169 146 121 181 196 178 205 227 211 180 183 186 194 194 179 166 166 161 160 158 152 154 158 166 174 175 179 183 186 188 184 182 189 197 194 188 189 191 183 176 182 212 234 197 139 118 109 94 84 71 60 52 42 37 36 36 36 41 51 59 63 71 60 8 5 13 18
177 237 234 221 221 230 227 225 205 186 182 165 163 136 163 202 173 176 231 162 151 136 161 176 177 226 247 228 181 186 180 180 184 171 157 159 158 159 162 160 161 159 163 171 174 180 187 193 195 188 183 184 191 195 194 196 199 194 188 190 206 219 190 145 117 101 90 80 71 71 56 36 32 31 34 39 41 51 61 63 64 58 18 359 7 15
217 244 227 190 197 219 215 214 206 186 207 181 167 165 180 205 184 172 180 135 40 71 137 125 71 297 263 205 214 204 178 169 175 165 154 161 161 162 165 165 167 166 164 168 172 179 188 195 199 193 186 187 194 199 200 201 199 192 187 190 202 202 174 147 127 119 105 87 84 76 51 30 27 25 27 33 37 45 53 59 61 57 32 355 358 10
242 255 180 160 187 208 202 204 198 183 209 199 173 179 173 176 178 146 127 97 42 42 157 119 90 283 281 229 222 215 155 156 170 165 157 161 161 163 167 168 169 170 168 168 170 179 188 196 199 193 190 196 201 202 199 196 191 185 186 188 190 184 166 152 146 138 121 101 98 75 45 33 28 29 34 32 34 37 34 41 50 49 35 349 346 1
252 271 127 157 182 195 199 222 209 173 157 166 173 167 161 160 155 163 154 114 95 197 202 122 123 217 287 259 239 177 130 154 169 166 163 162 163 167 170 170 171 171 173 173 172 178 189 196 197 194 195 199 197 194 188 187 185 178 179 180 178 174 161 151 152 137 119 115 99 85 48 33 28 30 33 23 19 22 18 21 34 37 27 5 340 348
261 342 77 148 177 183 185 235 230 164 129 172 169 148 150 158 155 169 152 121 164 171 0 20 111 117 245 242 264 132 135 159 161 161 171 166 166 171 172 173 175 175 176 176 174 177 185 192 196 199 200 192 181 179 183 192 190 176 174 175 170 164 155 146 150 144 130 139 133 89 52 33 27 25 21 15 13 16 17 19 28 34 28 14 347 339
267 276 97 128 161 184 190 228 206 150 111 165 155 144 154 152 134 131 115 106 114 90 357 306 85 99 247 265 313 81 139 172 176 173 183 172 169 173 175 177 179 178 178 178 176 176 180 185 188 196 195 187 180 172 173 193 193 177 175 174 168 164 158 149 149 152 155 154 141 72 46 35 31 27 16 12 17 22 23 22 23 26 30 25 359 342
255 213 169 123 137 191 216 233 184 134 119 148 139 140 139 103 90 87 96 99 47 70 216 260 90 110 256 286 310 107 151 184 189 188 191 177 173 177 179 180 180 178 178 182 181 175 179 184 181 189 192 187 185 173 163 184 192 183 181 177 169 166 163 161 158 154 161 157 139 82 46 30 19 18 9 5 14 20 20 18 14 12 20 28 11 350
265 242 181 129 150 187 209 237 167 128 145 141 121 106 72 49 51 58 60 82 69 5 248 237 152 114 195 275 228 190 193 177 165 184 197 178 174 180 183 182 180 178 179 182 180 176 179 180 176 184 192 189 184 177 166 163 166 170 178 178 174 172 168 172 172 160 164 170 157 126 24 2 351 355 352 348 355 2 6 6 4 2 9 23 21 3
317 333 275 185 178 154 114 305 24 88 113 110 89 84 75 22 11 26 2 38 86 261 262 224 138 102 134 249 237 231 223 169 155 169 182 178 179 182 183 183 181 179 179 179 176 174 178 179 177 180 184 185 181 178 173 160 145 142 154 168 177 182 178 176 182 185 200 205 206 279 324 335 325 325 329 335 338 338 344 346 346 356 11 19 19 13
324 288 271 244 203 133 94 342 338 37 54 80 97 94 84 36 12 20 317 350 136 240 252 182 127 100 202 240 224 199 188 175 170 168 172 178 181 181 181 181 180 178 177 177 174 174 180 183 183 178 175 179 182 181 178 171 162 151 136 136 174 189 191 193 199 212 235 241 254 277 284 298 308 319 332 355 1 355 359 352 343 349 3 8 6 6
339 309 309 12 326 176 118 120 264 326 99 129 138 128 114 109 81 225 258 302 197 242 255 162 124 133 266 267 212 164 165 181 174 166 169 176 181 181 180 178 177 178 177 177 176 177 184 188 184 179 175 178 185 185 183 185 187 179 146 97 130 167 172 194 225 236 250 244 225 241 313 305 332 28 40 38 35 30 25 15 1 357 357 355 353 352
101 319 290 198 265 202 138 164 174 161 143 165 164 138 137 149 143 180 204 184 202 236 288 73 100 180 189 243 202 157 160 170 167 165 165 172 180 178 175 174 174 177 177 177 179 181 185 186 179 178 180 184 188 187 186 187 188 185 169 124 132 145 139 109 265 236 221 183 167 145 84 62 67 63 57 44 34 29 26 21 15 13 9 5 2 358
122 245 254 238 234 142 149 222 164 112 52 262 157 104 133 183 145 140 179 173 170 155 93 112 203 211 195 253 205 146 148 156 158 155 148 158 172 169 167 172 173 175 177 177 181 183 181 181 177 176 181 183 184 186 189 187 188 187 181 176 169 159 158 98 42 186 166 138 128 121 90 69 63 60 56 42 27 18 18 16 14 14 8 5 4 3
104 267 270 288 328 180 177 204 141 119 144 290 102 138 248 173 120 113 167 34 78 108 191 217 127 45 45 332 305 143 140 151 153 139 130 147 161 161 164 171 172 175 176 178 181 181 178 179 177 176 179 178 178 183 191 195 197 197 193 193 194 194 189 168 148 128 115 98 91 94 80 71 70 60 47 37 22 11 12 11 10 9 3 358 356 355
129 277 279 149 146 235 189 106 52 84 127 107 165 214 225 61 85 107 111 20 50 108 246 239 144 159 144 133 285 227 153 166 161 124 128 145 153 157 165 169 173 175 176 178 180 177 176 178 177 178 177 175 175 180 185 185 184 191 200 200 194 189 165 132 130 114 92 78 85 89 77 71 75 62 38 25 18 12 12 12 9 7 5 2 359 357
121 13 292 273 172 246 32 68 35 345 35 105 175 184 103 91 312 41 105 142 132 147 233 266 153 187 184 168 189 191 176 175 157 126 137 150 153 158 165 168 171 174 176 178 176 174 176 177 179 177 172 173 177 180 178 175 175 182 190 180 162 154 137 116 107 101 92 85 86 84 79 72 68 59 41 23 16 12 12 12 8 5 5 4 2 0
114 107 286 292 282 324 23 62 138 305 344 22 35 19 53 136 168 156 120 154 142 148 172 127 38 231 230 199 177 182 184 170 154 148 156 161 159 160 163 166 171 175 177 177 174 173 173 171 168 162 159 161 162 161 159 157 158 159 159 153 142 133 126 118 108 97 86 79 76 69 66 63 56 49 38 26 16 9 9 8 5 5 5 3 0 357
71 92 214 296 331 42 37 187 177 181 346 38 42 17 350 11 100 97 4 88 123 136 159 134 155 261 256 206 175 183 187 173 163 162 164 164 160 160 165 169 173 177 177 176 173 170 165 159 153 148 149 150 146 147 151 150 149 148 144 140 136 131 125 120 108 92 77 67 62 56 50 44 38 34 26 22 15 6 6 6 5 7 5 4 2 357
95 101 142 302 351 64 248 241 183 169 157 145 126 123 158 112 82 85 357 312 84 115 153 142 156 265 269 181 168 184 187 176 166 160 158 162 161 164 169 172 175 177 177 176 174 169 163 155 149 151 155 155 152 149 153 158 160 157 151 146 143 137 130 129 114 88 78 61 48 43 37 29 24 22 16 16 11 5 6 8 10 10 6 5 3 358
133 104 94 306 254 216 273 308 175 150 124 113 119 136 141 114 101 116 158 276 11 62 120 114 114 260 270 252 183 185 176 170 165 158 154 160 163 167 171 174 176 177 177 176 173 171 168 159 153 161 169 170 165 156 154 160 165 162 158 158 163 161 149 144 138 126 124 86 51 34 22 16 15 17 19 21 18 15 14 13 13 10 5 6 4 359
74 77 65 311 302 302 306 327 351 47 76 80 45 60 101 101 117 143 164 165 77 33 77 88 81 261 273 288 176 146 144 152 161 158 155 158 163 167 172 176 177 177 176 175 174 174 171 166 163 170 180 184 181 173 166 164 164 162 161 163 174 182 178 177 193 192 185 175 71 8 359 6 17 28 32 28 23 20 16 12 10 7 2 0 359 356
84 69 87 57 3 351 340 343 351 358 38 98 299 339 80 98 86 82 87 80 61 356 131 115 171 253 275 323 102 117 124 138 156 158 158 161 163 166 172 177 178 178 177 175 175 174 173 175 178 179 181 186 188 186 183 178 172 166 163 164 168 180 187 189 199 198 189 182 181 196 69 65 47 39 34 26 21 20 16 7 358 355 352 346 342 340
122 134 119 106 112 151 284 291 277 303 353 87 34 316 99 105 100 103 47 63 75 261 106 123 182 245 288 359 102 123 128 138 156 162 164 166 166 165 169 175 178 178 177 175 174 175 177 183 187 184 181 186 192 194 193 190 179 169 171 175 173 179 184 176 177 183 181 178 174 164 129 86 43 30 28 19 9 360 351 341 330 324 322 317 314 312
96 76 125 131 157 177 186 224 224 161 132 137 117 273 333 86 104 105 82 91 170 132 55 211 188 177 252 264 129 143 151 151 162 169 171 173 170 167 168 171 175 177 176 175 174 176 181 187 190 189 187 189 193 197 197 193 183 173 176 185 185 186 182 172 173 179 183 183 169 141 106 61 12 347 333 312 300 294 296 302 301 297 297 298 299 299
84 40 149 143 170 201 195 218 243 157 154 179 170 168 206 98 94 94 112 186 155 100 7 266 191 154 217 234 184 170 169 162 169 174 176 178 175 171 169 169 173 176 177 176 177 179 184 189 190 190 193 196 198 199 201 199 191 179 178 188 194 194 191 187 191 193 189 184 166 135 151 265 267 260 261 269 275 280 284 288 292 293 294 296 299 300
112 148 256 147 221 269 227 215 240 208 176 181 179 179 170 156 134 125 173 191 137 128 210 223 169 176 227 229 204 191 177 170 178 181 180 179 176 173 171 171 175 178 178 179 181 184 186 190 193 193 196 201 203 204 206 207 202 194 193 201 206 210 209 206 211 209 195 188 193 209 232 249 256 257 258 264 270 273 274 276 284 295 302 307 310 310
101 217 252 102 21 313 308 313 210 197 255 302 218 193 168 172 177 158 174 186 139 149 201 176 158 209 233 214 211 204 183 173 175 178 176 175 175 175 174 175 178 179 181 184 188 190 191 193 198 200 201 204 210 213 213 213 213 212 211 207 210 219 220 219 222 219 210 213 221 230 245 254 258 257 253 253 251 246 251 271 297 311 315 315 315 316
72 224 244 75 40 315 306 326 292 180 207 245 258 247 141 145 174 154 150 160 124 132 189 141 138 257 261 228 197 176 166 156 156 167 173 175 178 178 178 179 182 184 187 190 194 196 196 197 202 208 210 211 211 209 208 209 213 217 217 212 215 223 225 228 228 220 218 229 235 239 246 244 236 230 221 216 218 236 274 304 314 318 319 320 323 327
79 142 314 61 50 288 293 336 333 332 134 223 268 257 154 139 166 186 187 178 154 152 150 122 131 252 258 234 158 159 159 150 154 168 175 179 181 182 183 184 187 190 192 196 198 198 197 198 203 208 211 206 197 188 188 191 192 197 202 205 207 203 207 221 226 221 220 229 229 221 214 204 198 199 199 207 248 300 316 319 318 318 323 331 338 341
114 113 118 85 83 273 289 341 336 352 22 333 271 214 179 172 175 169 197 198 173 151 143 165 213 227 211 168 151 170 177 165 166 171 174 181 187 189 190 191 193 195 197 199 201 200 198 198 200 203 201 195 190 184 182 183 183 182 184 186 186 178 181 201 216 218 212 205 198 191 187 187 192 202 224 279 314 319 317 317 319 323 331 344 349 341
119 124 165 141 134 264 288 340 14 14 346 264 241 187 174 179 174 171 194 202 195 173 143 176 216 202 168 171 173 184 196 188 177 172 174 182 190 194 197 199 201 203 203 204 204 203 203 202 200 201 199 196 198 199 192 192 197 194 187 184 185 184 181 187 197 201 194 186 185 186 186 193 208 241 288 308 314 314 315 321 328 332 337 346 349 342
120 140 181 136 135 227 308 23 34 319 247 250 278 247 183 172 164 166 196 213 206 201 150 158 203 189 182 197 196 189 194 193 184 178 179 185 191 196 200 205 209 209 209 209 209 209 209 206 202 202 202 201 202 201 200 203 204 197 190 189 189 185 181 181 184 186 186 186 188 190 196 218 257 287 301 310 313 316 324 333 336 336 340 346 351 348
151 154 180 174 160 202 1 68 145 248 255 287 324 330 130 112 118 126 1 276 226 200 173 178 212 211 194 202 207 205 203 198 190 188 187 190 195 197 199 205 210 213 216 216 215 215 215 211 206 205 205 203 203 204 203 202 201 195 188 188 189 184 181 183 184 184 186 189 189 195 232 275 292 301 308 316 320 326 337 344 343 344 348 351 352 351
155 139 174 225 221 167 156 192 242 281 296 312 309 244 155 136 170 155 165 272 253 212 187 189 218 228 217 218 220 214 203 189 189 198 192 190 197 197 196 203 208 212 215 210 208 214 218 216 211 208 206 204 204 205 202 197 196 194 187 185 187 185 183 184 184 183 187 190 195 243 286 295 304 315 324 327 332 342 356 8 13 9 1 356 358 360
171 166 186 208 235 119 126 223 292 307 271 253 252 259 256 215 176 140 108 294 271 239 209 207 218 219 226 240 224 185 169 149 169 214 197 192 197 197 198 205 206 202 198 192 188 191 202 211 212 208 205 200 196 196 196 195 195 192 186 183 183 183 182 183 182 184 191 205 248 286 301 312 319 327 335 337 345 6 26 31 29 24 15 9 13 15
193 144 146 161 187 124 131 185 213 200 241 243 252 274 255 160 138 104 63 308 279 286 243 208 200 203 215 208 170 149 145 140 229 218 199 193 195 196 199 201 193 188 187 186 184 181 183 194 200 197 196 193 188 188 192 194 193 188 182 177 177 179 179 179 181 189 207 249 285 296 308 318 322 331 343 351 15 45 46 30 25 27 24 21 24 25
124 65 109 156 190 176 154 181 217 220 244 250 268 279 236 145 115 86 51 250 266 304 225 172 162 149 162 168 156 147 158 185 213 211 200 197 198 197 198 198 190 186 184 179 179 178 175 180 185 185 188 189 186 185 187 190 189 184 177 172 173 176 176 176 185 201 242 268 281 301 311 314 322 346 6 28 60 72 61 36 35 35 24 19 19 17
39 67 128 171 185 186 171 179 245 251 247 285 302 291 231 138 97 103 204 235 260 287 151 154 148 134 136 147 149 155 173 181 193 200 202 208 208 199 194 194 189 186 184 179 178 178 176 178 182 184 185 187 183 180 182 186 183 176 171 170 171 174 173 173 181 191 259 274 282 297 309 333 28 42 55 66 72 88 96 67 47 35 18 13 12 9
345 17 14 149 167 186 175 167 260 261 285 323 319 320 63 125 169 207 240 329 347 183 143 134 139 135 133 141 145 148 150 148 156 175 196 208 204 194 190 191 185 181 181 179 180 182 182 180 181 182 180 178 177 177 178 181 178 169 166 168 169 171 171 171 177 209 275 283 290 307 86 92 81 77 79 71 69 85 85 56 31 21 12 9 7 5
183 21 323 240 193 150 88 80 196 222 294 340 341 350 41 94 206 231 325 40 68 130 133 127 138 140 135 138 140 144 148 146 147 158 176 192 193 188 186 187 184 181 181 180 180 184 186 182 179 178 174 170 171 173 175 180 177 165 159 164 167 173 182 192 216 249 260 247 138 105 99 93 88 81 78 86 77 59 45 30 23 19 15 11 3 359
129 152 235 254 218 117 135 202 204 213 294 347 10 92 119 76 87 89 79 76 78 91 105 113 126 140 144 144 143 146 153 153 154 162 168 177 184 184 183 184 185 183 182 182 182 185 189 185 179 174 169 167 168 168 172 180 176 162 156 175 186 197 213 223 228 223 200 157 125 108 104 107 104 91 89 105 85 49 39 41 39 30 22 14 4 3
287 244 189 201 225 152 179 213 241 277 337 4 27 73 88 74 71 71 77 78 74 81 90 88 97 120 134 141 148 155 163 168 172 178 180 181 185 188 187 187 188 188 186 185 184 186 190 188 181 175 169 167 170 171 172 177 178 177 206 223 204 209 218 206 180 162 140 122 114 110 114 127 132 119 108 113 100 73 74 73 45 29 27 21 6 7
299 317 128 144 302 352 158 247 316 346 4 22 34 33 37 56 59 56 61 67 68 73 81 79 80 89 101 126 159 176 187 192 188 186 188 188 187 188 189 188 187 188 187 185 182 183 186 186 184 180 174 170 174 178 177 182 202 246 248 210 205 209 197 180 168 151 133 125 121 123 138 146 141 127 108 104 105 105 98 60 30 23 28 27 14 6
348 13 40 90 27 24 291 298 325 343 350 11 40 51 27 23 34 30 28 38 63 89 88 72 47 23 17 4 276 215 200 199 195 190 190 189 188 188 188 187 186 186 186 185 182 184 187 187 185 184 181 179 179 181 185 207 251 258 216 197 199 187 169 170 167 147 140 143 144 148 156 152 140 121 101 97 102 104 75 25 16 16 24 35 32 20
341 357 3 144 119 164 224 270 300 319 307 318 56 58 46 45 48 19 45 123 151 162 160 55 359 342 340 346 356 199 192 193 192 191 190 188 186 186 185 185 184 183 184 185 186 188 192 192 191 190 189 185 184 188 204 220 216 209 202 192 180 169 167 170 164 151 151 155 157 157 160 160 155 135 104 83 75 41 0 356 1 9 26 38 36 28
314 331 328 151 341 327 276 278 302 331 308 230 145 68 48 54 55 71 128 154 164 163 169 180 188 217 243 253 287 104 185 190 191 192 193 189 185 184 184 185 186 185 186 189 193 197 200 200 198 194 189 188 193 204 212 201 192 197 199 177 162 167 175 174 167 160 156 152 154 166 173 170 171 171 118 13 359 356 358 2 9 21 39 40 31 24
313 299 274 45 357 301 276 273 282 336 277 247 241 12 23 42 40 56 86 110 121 129 142 147 142 141 153 168 159 108 157 194 195 196 198 195 191 189 189 189 190 191 194 197 200 203 205 204 200 195 193 197 206 207 200 197 196 191 173 153 156 172 178 171 164 161 155 148 151 173 187 184 189 233 321 336 336 345 357 16 37 40 39 37 25 13
320 273 227 168 190 244 274 285 281 258 267 292 310 310 295 289 320 9 36 44 67 105 138 144 137 126 116 108 95 81 96 204 202 200 202 201 198 198 200 200 200 201 201 203 206 207 205 201 199 198 200 205 207 201 196 194 185 169 158 157 168 179 180 175 169 159 151 150 156 167 181 199 219 287 327 333 337 343 353 32 87 42 30 32 19 3